Location: Poughquag
(41.6090°N, 73.6820°W)
Time: 01:33:54
(UTC-05:00)

Hubble Space Telescope - Pass Details

Date: 23 November 2019
Orbit: 536 x 540 km, 28.5° (Epoch: 11 December)

Event Time Altitude Azimuth Distance (km) Brightness Sun altitude
Rises 18:45:04 0° 241° (WSW) 2,669 5.4 -25.1°
Reaches altitude 10° 18:48:33 10° 210° (SSW) 1,779 3.8 -25.8°
Enters shadow 18:50:10 12° 187° (S) 1,638 3.3 -26.1°
